Temp
63 63 63 64 63 64 64 64 64 63 63 63 64 64 63 63 63 60 61 69 69 70 68 65 65 64 63 60 60 54 46 42 45 48 51 55 56 59 58 54 58 60 57 60 58
62 63 63 63 63 63 63 64 63 63 63 63 63 63 63 63 58 60 70 72 71 70 65 63 59 60 57 56 56 51 43 48 51 51 50 54 52 55 56 57 53 57 62 59 57
62 62 62 62 63 63 63 63 63 63 63 63 63 63 62 60 60 63 71 72 71 69 66 64 64 60 53 53 52 49 48 51 55 57 55 53 51 54 51 53 56 58 58 60 58
62 61 62 62 62 62 63 63 63 63 63 62 63 62 62 58 52 63 70 70 70 67 65 62 59 54 50 49 53 47 54 55 56 56 54 52 54 53 54 60 59 57 58 57 56
61 61 61 61 61 62 62 63 63 62 62 62 63 62 58 55 61 65 68 68 66 65 62 60 56 54 49 50 51 48 52 55 57 56 54 55 54 54 55 60 58 59 55 51 50
60 60 60 60 61 61 62 62 63 62 62 62 63 62 56 52 65 67 65 64 64 63 60 61 59 59 53 51 51 50 52 54 55 57 54 54 50 54 59 56 58 55 49 48 48
60 60 60 60 61 61 62 62 62 62 62 63 63 61 55 59 64 64 65 62 64 63 60 60 60 57 55 50 54 52 50 52 54 53 53 53 48 51 58 57 52 49 46 47 47
60 60 60 60 60 61 61 62 62 61 62 63 63 56 55 64 62 63 63 62 63 63 63 62 62 58 54 55 54 47 44 42 52 51 51 52 46 56 57 55 48 45 42 45 45
59 59 59 60 60 60 61 61 61 62 62 63 55 54 54 65 60 62 62 61 61 61 61 67 60 53 53 46 42 41 37 40 47 52 50 48 44 56 58 54 45 42 42 43 43
59 59 59 60 60 60 60 61 62 61 61 62 62 52 58 58 60 62 60 62 58 57 57 55 49 45 43 42 36 39 36 39 41 48 47 44 46 51 54 51 43 39 39 41 41
59 59 59 60 60 61 59 56 55 52 53 55 54 55 57 59 62 58 60 60 57 54 47 47 43 41 45 46 44 42 40 38 43 50 44 45 44 46 44 43 39 40 40 40 41
59 59 59 60 60 61 57 52 55 54 50 57 56 56 60 60 54 57 62 55 52 47 47 43 40 49 49 47 45 42 39 39 44 48 46 43 44 41 40 39 39 39 38 39 40
59 59 59 60 60 57 54 55 59 57 47 52 55 54 56 59 54 55 59 54 50 47 46 43 47 50 48 45 43 40 39 38 41 43 42 38 38 38 39 40 41 40 40 39 38
59 59 59 59 56 55 53 60 59 57 42 46 50 53 55 56 49 56 58 55 48 46 46 44 50 48 43 43 44 37 46 44 41 37 33 38 30 35 35 35 37 36 35 36 37
59 59 59 60 57 53 56 57 57 56 32 48 47 57 54 51 49 49 54 52 45 45 45 43 43 42 41 44 47 43 45 42 40 35 32 32 30 32 35 32 33 34 35 35 36
58 58 58 57 56 55 56 57 57 41 32 42 47 46 46 48 48 49 49 52 49 45 42 44 45 45 46 45 46 46 42 39 35 33 27 35 34 32 32 36 34 35 35 37 36
58 58 57 59 54 54 55 53 41 32 45 40 41 44 43 42 43 45 43 41 39 35 34 39 42 43 46 42 42 41 37 29 26 24 27 33 31 34 35 38 38 35 34 35 36
57 57 57 60 56 55 54 46 32 40 40 44 43 42 40 43 42 43 40 38 42 39 35 34 33 42 46 44 41 38 39 29 20 22 28 31 29 34 34 37 38 38 36 36 35
57 56 56 58 56 57 49 38 38 41 46 44 45 38 37 41 42 40 38 39 43 43 39 35 36 42 43 44 45 38 34 39 29 14 21 30 28 33 35 34 35 34 35 34 36
53 53 52 57 57 54 46 42 42 48 49 48 40 41 35 38 38 38 37 43 43 45 45 42 34 39 41 42 40 39 42 32 29 17 15 26 28 31 29 31 33 33 33 33 34
50 48 51 56 55 49 40 42 43 50 51 47 45 42 39 38 39 37 39 43 45 42 46 42 39 34 39 37 37 36 33 34 35 30 20 16 26 35 35 35 33 34 35 34 33
46 43 50 54 44 44 40 42 46 46 48 46 46 45 43 43 39 40 38 43 41 44 42 43 38 27 34 37 39 38 37 37 33 26 25 26 30 36 38 38 37 36 36 34 34
42 42 49 49 40 39 41 42 45 43 44 44 43 45 45 42 37 43 41 40 40 41 41 43 34 21 29 32 34 34 35 35 32 27 25 23 26 36 35 34 35 34 34 34 33
41 36 41 43 44 41 39 39 40 44 44 44 44 44 41 39 41 36 36 38 38 39 43 43 32 29 30 31 31 26 30 31 30 21 25 26 26 31 33 33 33 34 33 32 31
40 36 39 33 36 40 41 39 37 37 42 44 40 41 41 34 35 33 35 36 38 38 37 39 31 29 30 32 32 30 29 31 27 29 28 30 28 32 32 32 33 32 30 30 31
36 35 37 34 39 38 38 35 37 39 39 37 37 40 41 37 36 32 34 33 34 33 34 32 28 28 26 29 29 26 29 30 30 30 27 28 30 36 32 29 27 29 30 30 31
39 39 37 36 33 33 33 35 37 40 38 39 39 37 35 38 38 35 37 37 36 33 31 30 26 25 22 22 23 19 26 29 31 30 32 25 31 26 25 29 28 27 29 31 32
MSLP
1019.88 1019.75 1019.58 1019.52 1019.39 1019.29 1019.18 1019.03 1018.85 1018.70 1018.50 1018.25 1017.96 1017.70 1017.51 1017.23 1016.70 1016.60 1016.02 1015.25 1015.11 1015.07 1015.18 1015.34 1015.31 1015.48 1015.59 1016.19 1016.55 1017.26 1018.30 1018.63 1017.71 1016.93 1016.19 1015.75 1015.56 1014.93 1014.81 1014.88 1014.77 1014.50 1014.60 1014.71 1014.85
1019.87 1019.79 1019.65 1019.54 1019.38 1019.24 1019.15 1019.02 1018.85 1018.66 1018.47 1018.22 1017.94 1017.71 1017.48 1017.20 1016.83 1016.06 1015.18 1015.03 1015.00 1015.12 1015.30 1015.50 1015.70 1015.81 1016.36 1016.70 1017.05 1017.65 1018.63 1017.97 1017.07 1016.40 1016.14 1015.91 1015.88 1015.73 1015.56 1015.26 1015.24 1015.12 1014.97 1015.06 1015.25
1019.90 1019.82 1019.74 1019.59 1019.52 1019.30 1019.12 1019.03 1018.88 1018.70 1018.45 1018.24 1017.98 1017.74 1017.50 1017.31 1016.89 1015.43 1015.00 1014.93 1015.12 1015.23 1015.34 1015.51 1015.72 1016.01 1016.58 1016.91 1017.23 1017.72 1017.89 1017.36 1016.66 1016.32 1016.17 1016.11 1016.08 1015.92 1015.95 1015.76 1015.53 1015.70 1015.64 1015.74 1015.80
1019.92 1019.89 1019.80 1019.72 1019.58 1019.48 1019.24 1019.06 1018.92 1018.72 1018.52 1018.26 1018.03 1017.77 1017.54 1017.39 1016.70 1015.19 1015.01 1014.98 1015.07 1015.33 1015.49 1015.71 1016.02 1016.49 1016.95 1017.19 1017.23 1017.73 1017.17 1017.07 1016.58 1016.38 1016.48 1016.34 1016.06 1016.14 1016.12 1015.43 1015.63 1016.29 1016.44 1016.72 1017.17
1019.94 1019.75 1019.76 1019.75 1019.60 1019.46 1019.29 1019.07 1018.87 1018.65 1018.47 1018.22 1018.02 1017.78 1017.51 1017.30 1015.99 1015.09 1015.15 1015.23 1015.32 1015.51 1015.67 1015.94 1016.32 1016.67 1017.10 1017.20 1017.28 1017.48 1017.22 1016.99 1016.60 1016.50 1016.54 1016.36 1016.36 1016.45 1015.88 1015.38 1016.18 1016.77 1017.40 1017.97 1018.43
1019.69 1019.63 1019.55 1019.59 1019.58 1019.43 1019.25 1018.99 1018.81 1018.61 1018.36 1018.19 1017.97 1017.95 1017.79 1017.03 1015.12 1015.14 1015.28 1015.41 1015.52 1015.69 1015.89 1016.04 1016.23 1016.48 1016.92 1017.16 1017.38 1017.32 1017.29 1017.12 1016.76 1016.40 1016.43 1016.54 1016.51 1016.52 1015.37 1015.76 1016.99 1017.76 1018.86 1019.35 1019.55
1019.37 1019.42 1019.37 1019.36 1019.39 1019.34 1019.21 1018.95 1018.64 1018.46 1018.24 1018.03 1017.97 1017.94 1017.66 1016.00 1015.14 1015.27 1015.32 1015.39 1015.46 1015.61 1015.90 1016.10 1016.18 1016.58 1017.02 1017.23 1017.29 1017.39 1017.60 1017.29 1016.48 1016.28 1016.21 1016.37 1016.78 1016.38 1015.65 1016.31 1017.85 1019.07 1019.91 1020.32 1020.68
1019.23 1019.10 1019.13 1019.17 1019.17 1019.17 1019.05 1018.81 1018.41 1018.14 1018.06 1018.00 1017.96 1018.02 1016.89 1015.29 1015.32 1015.40 1015.39 1015.50 1015.57 1015.68 1015.80 1015.99 1016.20 1016.70 1017.14 1017.45 1017.75 1018.02 1018.16 1018.01 1016.53 1016.36 1016.05 1016.38 1016.57 1015.95 1016.02 1016.90 1018.90 1019.95 1020.87 1021.25 1021.58
1018.88 1018.87 1018.80 1018.91 1018.91 1019.00 1018.91 1018.64 1018.17 1017.72 1017.84 1017.98 1018.15 1017.88 1016.46 1015.30 1015.40 1015.28 1015.35 1015.64 1015.82 1016.01 1016.12 1016.14 1016.43 1017.42 1017.83 1018.39 1018.97 1018.99 1018.77 1018.36 1017.32 1016.28 1016.39 1016.69 1017.01 1016.31 1016.46 1017.62 1019.69 1020.92 1021.84 1022.22 1022.32
1018.33 1018.50 1018.62 1018.58 1018.65 1018.76 1018.72 1018.39 1018.03 1017.89 1017.93 1017.96 1017.99 1018.23 1016.06 1015.23 1015.23 1015.38 1015.44 1015.75 1016.10 1016.45 1016.72 1016.96 1017.68 1018.24 1018.84 1019.12 1019.26 1019.06 1019.15 1018.58 1017.88 1016.94 1016.89 1017.33 1017.68 1017.62 1017.71 1018.80 1020.30 1021.77 1022.61 1023.15 1023.26
1017.92 1018.09 1018.22 1018.27 1018.47 1018.60 1018.67 1018.55 1018.55 1018.21 1017.82 1016.55 1016.47 1016.13 1015.41 1015.31 1015.24 1015.53 1015.57 1015.86 1016.35 1016.88 1017.40 1017.72 1018.40 1018.34 1018.16 1018.38 1018.44 1018.61 1018.76 1018.64 1018.00 1017.31 1017.67 1017.90 1018.50 1018.99 1019.75 1020.35 1021.65 1022.63 1023.37 1023.82 1024.00
1017.38 1017.64 1017.79 1018.07 1018.37 1018.52 1018.59 1018.81 1017.64 1017.75 1016.98 1015.73 1015.81 1015.70 1015.23 1015.13 1015.41 1015.60 1015.69 1016.25 1016.72 1017.24 1017.74 1018.49 1018.16 1017.58 1017.89 1018.32 1018.73 1018.85 1018.94 1018.73 1018.33 1017.66 1018.13 1018.36 1019.14 1020.28 1021.00 1022.12 1022.80 1023.55 1024.28 1024.73 1024.95
1016.76 1017.10 1017.40 1017.87 1018.29 1018.49 1018.21 1017.62 1017.35 1017.37 1017.41 1015.61 1014.90 1014.74 1014.86 1015.08 1015.08 1015.25 1015.65 1016.09 1016.57 1017.26 1017.68 1017.71 1017.29 1017.15 1017.82 1018.16 1018.61 1018.72 1018.82 1018.72 1018.62 1018.24 1018.30 1018.87 1019.59 1020.64 1022.34 1023.06 1023.84 1024.51 1024.62 1024.98 1025.32
1015.90 1016.35 1016.99 1017.74 1018.58 1017.68 1017.68 1016.73 1017.17 1017.52 1017.62 1015.35 1014.67 1014.13 1014.53 1014.78 1015.22 1015.06 1015.19 1015.73 1016.60 1016.77 1017.55 1017.56 1016.94 1017.15 1017.51 1017.66 1017.92 1018.39 1017.98 1018.39 1018.77 1019.18 1019.37 1019.41 1020.26 1020.95 1022.45 1023.86 1024.44 1025.20 1025.64 1025.71 1025.57
1015.08 1015.54 1016.18 1016.73 1016.62 1017.11 1016.58 1016.60 1017.03 1017.73 1017.28 1014.43 1014.41 1014.31 1014.45 1015.07 1015.38 1015.56 1015.47 1015.66 1016.23 1016.69 1017.33 1016.86 1016.81 1016.93 1017.14 1016.89 1017.30 1017.60 1017.75 1018.49 1018.97 1019.66 1020.01 1020.34 1021.37 1021.25 1022.55 1024.01 1025.05 1025.81 1026.28 1026.50 1026.64
1014.41 1014.65 1015.07 1016.27 1016.58 1016.38 1016.56 1016.57 1017.23 1017.79 1015.31 1014.36 1014.22 1014.40 1014.79 1015.17 1015.55 1015.77 1015.85 1015.96 1016.29 1016.76 1016.90 1016.75 1016.58 1016.50 1016.30 1016.53 1016.81 1017.24 1018.16 1019.12 1019.95 1020.60 1020.87 1020.20 1021.16 1021.26 1022.12 1022.39 1024.29 1025.69 1026.26 1026.58 1027.03
1013.83 1014.20 1014.57 1014.79 1015.16 1015.88 1016.29 1016.61 1016.96 1015.78 1014.30 1014.07 1014.21 1014.45 1014.74 1015.38 1015.85 1015.93 1016.15 1016.47 1016.52 1017.07 1017.04 1016.83 1016.51 1016.12 1016.15 1016.67 1017.07 1017.46 1018.63 1019.96 1021.02 1021.58 1020.84 1020.49 1021.57 1021.07 1021.71 1021.90 1022.94 1024.67 1026.13 1026.58 1026.80
1013.24 1013.67 1013.56 1013.53 1014.56 1015.25 1016.07 1015.83 1015.34 1013.44 1013.43 1013.29 1013.68 1014.41 1014.94 1015.24 1015.57 1015.93 1016.30 1016.44 1016.25 1016.30 1016.70 1016.66 1016.58 1015.87 1015.82 1015.99 1016.48 1017.42 1018.14 1019.34 1020.50 1021.67 1021.34 1021.26 1021.25 1021.03 1022.16 1022.33 1023.49 1024.88 1025.78 1026.33 1026.75
1012.62 1013.14 1012.97 1012.89 1013.64 1014.02 1014.70 1014.08 1013.38 1012.71 1012.52 1012.87 1013.70 1014.50 1014.94 1015.10 1015.17 1015.72 1015.99 1015.92 1015.36 1015.55 1015.61 1016.13 1016.02 1015.58 1015.62 1015.77 1016.19 1017.54 1018.08 1018.29 1020.16 1022.36 1022.26 1020.95 1021.24 1022.00 1022.67 1023.33 1023.96 1024.95 1025.72 1026.11 1026.47
1012.38 1012.67 1012.28 1012.24 1012.78 1013.13 1012.82 1012.11 1012.26 1011.87 1012.07 1012.26 1012.52 1013.32 1014.24 1014.77 1015.15 1015.41 1015.52 1014.71 1014.78 1014.66 1014.54 1015.14 1015.81 1015.90 1016.04 1016.25 1016.62 1016.83 1017.44 1018.74 1020.01 1021.90 1022.13 1020.87 1021.00 1020.71 1022.38 1023.09 1024.09 1024.96 1025.42 1025.83 1026.32
1012.54 1012.42 1012.01 1011.92 1012.38 1012.03 1011.26 1011.68 1011.93 1011.61 1011.46 1012.08 1012.05 1012.99 1013.27 1014.11 1014.43 1014.73 1014.68 1014.46 1014.46 1014.62 1014.71 1015.21 1015.64 1016.82 1016.71 1016.80 1016.96 1017.53 1017.77 1018.72 1019.52 1020.46 1021.14 1021.46 1019.99 1019.07 1019.97 1021.45 1022.70 1023.82 1024.56 1025.11 1026.05
1012.18 1012.30 1012.02 1011.83 1011.93 1011.23 1011.40 1011.76 1011.56 1011.35 1011.60 1012.10 1012.09 1012.41 1012.68 1013.40 1013.92 1014.36 1014.63 1014.64 1014.77 1014.83 1015.26 1015.32 1016.07 1017.31 1017.26 1017.22 1017.46 1017.50 1017.66 1018.34 1019.33 1020.40 1020.95 1021.32 1019.46 1019.38 1019.81 1020.81 1022.19 1023.38 1024.05 1024.90 1025.70
1012.17 1012.50 1012.19 1011.64 1010.96 1011.03 1011.22 1011.52 1011.68 1011.57 1011.67 1011.94 1012.26 1012.53 1012.79 1013.50 1014.20 1014.34 1014.89 1015.23 1015.56 1015.58 1015.37 1015.61 1016.81 1018.01 1018.42 1018.63 1018.47 1018.45 1018.31 1018.53 1019.35 1019.92 1020.30 1021.14 1019.85 1020.18 1020.59 1021.58 1022.36 1023.19 1024.05 1024.79 1025.46
1012.81 1012.48 1012.34 1012.02 1011.09 1011.20 1011.30 1011.47 1011.74 1011.71 1011.91 1011.89 1012.02 1012.52 1013.03 1013.60 1014.14 1014.75 1015.51 1016.28 1016.42 1016.41 1016.40 1016.23 1017.10 1017.94 1018.12 1018.15 1018.31 1019.13 1018.93 1019.12 1019.41 1020.24 1020.02 1019.56 1020.08 1020.85 1021.31 1021.94 1022.70 1023.27 1023.92 1024.75 1025.30
1013.17 1012.92 1012.60 1012.85 1012.23 1011.73 1011.83 1012.00 1011.99 1011.94 1011.92 1012.10 1012.26 1012.57 1013.05 1013.85 1014.52 1015.37 1016.10 1016.84 1017.10 1017.30 1017.42 1017.67 1018.64 1019.03 1019.09 1019.41 1019.52 1019.57 1019.47 1019.31 1019.55 1019.46 1019.87 1019.68 1020.11 1020.80 1021.23 1021.97 1022.42 1023.09 1024.06 1024.72 1025.37
1013.32 1013.63 1013.29 1013.44 1012.81 1012.29 1011.96 1011.69 1011.89 1012.07 1012.16 1012.51 1012.88 1013.15 1013.45 1013.72 1014.45 1015.32 1016.46 1017.04 1017.28 1017.90 1018.54 1018.85 1019.22 1019.81 1020.42 1020.81 1020.96 1020.72 1019.85 1019.99 1019.88 1019.81 1019.93 1020.34 1019.82 1020.73 1021.36 1022.52 1023.13 1023.49 1024.04 1024.74 1025.17
1013.58 1013.40 1013.40 1013.28 1013.02 1012.89 1011.91 1011.67 1012.02 1012.26 1012.88 1012.96 1013.29 1013.63 1014.13 1014.37 1014.99 1015.91 1016.57 1016.80 1016.90 1017.71 1018.84 1019.48 1019.90 1021.23 1022.21 1022.60 1022.38 1022.01 1019.47 1019.85 1019.71 1019.47 1019.97 1020.70 1020.09 1021.44 1022.34 1022.79 1022.90 1023.62 1023.94 1024.39 1024.97
Wind_Speed
5 6 6 7 8 9 10 10 11 11 12 13 13 12 12 12 11 1 4 3 2 7 1 2 3 4 4 3 3 3 5 1 4 4 3 3 5 3 2 1 4 3 2 2 3
5 5 6 6 7 8 9 11 11 11 12 13 13 13 12 12 3 3 3 2 1 8 3 3 2 2 3 2 3 5 4 8 4 2 2 3 1 4 5 7 3 4 5 2 1
5 6 6 7 8 8 9 10 10 11 12 13 13 12 11 7 5 3 3 0 2 5 2 2 4 2 2 1 1 3 5 5 4 5 2 2 2 2 2 6 7 7 4 5 3
6 6 7 7 7 8 8 9 10 10 11 12 11 10 10 2 4 0 1 4 4 5 2 3 3 3 2 2 2 1 6 4 3 2 1 3 1 4 5 10 4 4 7 5 9
8 7 7 8 8 8 9 10 10 9 10 12 10 9 3 2 8 2 4 4 5 5 4 4 4 4 3 3 0 3 3 3 5 7 6 3 6 5 9 11 4 8 12 10 9
8 8 7 8 9 9 10 10 10 9 10 12 9 5 1 5 0 4 5 4 4 3 3 4 5 5 3 2 4 1 3 7 7 9 3 5 2 5 7 3 10 11 10 9 12
9 9 8 8 9 10 10 11 11 10 10 9 6 1 1 12 2 3 3 2 5 4 3 3 3 3 3 1 2 1 5 7 6 2 5 7 1 7 7 4 10 10 8 10 12
10 9 9 8 9 10 11 12 12 11 9 4 1 0 8 0 1 1 1 2 3 2 3 2 3 3 2 1 6 2 3 3 4 3 1 5 7 5 3 4 7 8 7 10 13
11 10 9 8 8 10 11 13 14 8 3 3 0 2 9 1 2 3 2 4 4 2 3 3 3 3 4 5 4 4 4 5 8 1 2 3 5 6 5 6 8 7 8 9 11
11 10 10 8 7 8 11 13 3 4 1 1 2 2 3 5 3 3 1 5 3 4 4 4 5 3 3 4 6 6 5 5 5 1 3 2 7 10 10 3 10 8 8 10 12
11 11 10 8 7 5 5 4 2 2 3 10 7 4 2 1 2 1 2 4 4 3 5 0 4 8 12 11 2 3 5 5 4 6 0 6 5 6 11 8 9 9 10 10 10
13 12 10 8 6 3 3 3 3 1 8 10 7 7 3 4 3 4 5 6 5 6 5 3 7 12 3 5 6 5 4 6 5 6 5 5 7 5 11 6 6 9 8 8 7
14 12 11 8 3 2 4 6 1 2 3 8 6 6 5 8 7 9 10 5 5 6 8 9 6 4 8 6 6 5 6 4 7 3 3 1 5 3 5 8 10 8 8 7 7
16 15 13 9 2 4 5 5 5 3 5 7 5 5 3 6 5 2 6 6 3 10 6 7 5 6 4 6 8 4 7 7 4 4 4 1 5 4 5 5 6 5 5 5 6
17 17 16 18 4 4 3 7 7 3 8 1 3 2 3 5 5 1 1 3 6 7 7 7 4 4 5 9 7 7 5 5 3 3 1 2 2 3 7 4 4 4 4 5 5
17 18 19 10 3 1 5 7 5 5 15 4 5 5 6 3 2 3 2 3 2 3 0 6 1 3 6 2 6 5 5 6 4 3 2 9 8 4 7 8 9 5 6 7 5
15 17 16 8 7 10 5 4 5 7 1 6 6 6 5 6 4 5 6 5 7 6 5 2 4 2 3 4 2 3 6 1 3 1 7 4 3 4 6 3 15 16 9 7 6
15 16 15 10 9 15 4 5 7 8 9 2 5 5 7 7 6 7 7 6 6 2 4 7 4 9 6 7 7 7 7 7 8 5 4 1 7 3 2 8 14 12 10 8 7
11 6 4 9 13 11 8 10 8 6 7 9 4 4 4 4 6 5 7 6 8 11 8 6 6 1 3 3 6 5 5 3 6 3 4 5 1 1 4 7 10 11 9 9 8
3 4 4 11 14 9 10 15 8 3 4 4 10 7 10 8 8 8 9 6 6 12 1 6 2 1 1 2 2 5 5 3 2 2 5 5 5 5 9 12 10 10 11 8 7
2 4 1 9 8 7 9 7 5 6 6 8 9 9 7 8 8 6 7 3 5 3 5 5 4 2 3 6 8 2 1 1 3 5 6 2 7 2 15 17 18 14 12 10 9
2 5 1 4 7 4 7 5 4 6 2 2 3 0 7 7 7 7 8 3 4 5 9 5 5 5 7 1 2 2 7 7 6 6 3 3 9 8 8 16 14 13 10 7 7
4 2 2 2 8 5 4 5 5 5 6 7 7 6 3 7 8 14 4 4 4 3 7 7 1 2 7 1 2 5 4 4 4 4 9 7 7 5 6 8 8 9 8 8 8
2 3 1 3 2 2 4 2 6 2 4 5 3 6 3 5 2 5 3 3 5 4 8 4 4 9 13 6 5 5 5 5 6 5 6 9 3 3 5 9 7 7 7 7 7
2 2 2 3 5 5 6 6 8 6 2 3 3 9 13 5 5 4 3 0 1 4 3 4 6 2 2 4 2 1 4 10 8 7 10 5 9 12 11 10 8 7 6 8 8
4 3 3 1 6 13 7 8 8 4 7 6 4 9 8 8 8 10 6 3 6 2 5 2 5 3 1 5 4 4 9 7 6 4 6 3 18 8 4 6 6 9 9 8 7
1 1 2 4 4 4 5 7 4 6 3 2 4 4 5 6 4 4 4 3 5 7 7 5 7 4 5 3 3 9 11 18 12 7 11 14 12 7 5 8 11 10 9 8 7
Wind_Direction
13 13 17 9 8 3 360 357 357 356 352 345 340 338 336 333 317 184 262 230 239 159 138 99 42 26 33 57 47 111 62 205 241 184 257 324 11 307 289 222 337 299 248 311 39
347 347 350 351 355 354 353 349 349 349 346 344 339 338 338 339 321 279 276 308 101 152 92 116 97 57 39 44 26 85 115 222 219 205 244 294 270 334 357 333 274 307 317 48 101
321 326 329 335 336 340 342 342 340 339 339 338 333 333 332 333 342 256 358 292 168 168 104 107 99 79 50 52 200 155 196 209 251 224 221 262 254 203 269 292 236 277 282 350 307
294 303 307 313 320 324 327 329 329 330 332 331 330 330 325 329 294 152 66 105 133 155 96 109 73 88 140 225 198 242 246 212 264 157 339 244 273 271 200 241 67 302 301 344 14
281 284 296 303 306 311 315 319 322 325 327 330 330 337 337 352 252 116 105 100 103 128 154 142 138 147 190 208 291 211 275 284 266 288 250 303 245 250 258 263 2 58 48 41 40
268 277 283 292 298 302 306 311 316 318 320 326 330 336 37 255 124 132 127 120 130 126 161 140 188 193 168 220 171 230 272 277 285 265 250 229 266 136 285 76 57 72 56 42 38
256 268 275 283 289 296 301 306 308 306 310 319 333 8 117 243 48 147 144 157 159 151 151 180 175 133 129 270 319 303 316 324 262 284 223 161 86 231 255 6 73 79 66 52 37
255 254 266 275 286 294 300 305 302 297 298 296 115 117 245 284 112 159 149 66 92 82 127 153 148 122 163 116 10 351 45 340 277 173 244 138 257 270 294 33 98 83 60 56 41
248 253 254 265 280 296 304 304 303 294 198 139 120 143 264 108 184 178 161 152 105 61 43 84 83 109 47 97 5 1 238 216 310 233 147 140 253 282 343 49 116 92 59 56 46
236 244 252 256 273 298 309 302 314 88 82 167 271 0 251 222 157 145 97 135 120 105 54 65 55 93 60 108 220 212 220 244 238 319 45 309 255 278 320 320 142 99 77 63 54
229 232 236 243 260 297 355 348 310 276 236 191 192 228 138 102 117 136 157 109 94 86 160 127 117 204 205 202 183 178 195 221 255 269 352 244 244 340 337 41 96 95 87 77 62
223 224 224 232 246 268 113 260 257 306 297 231 228 264 229 186 127 199 126 151 157 190 116 57 224 229 130 171 205 239 242 253 280 264 167 270 282 54 34 38 86 97 81 74 70
215 215 211 213 231 245 212 206 153 1 267 284 201 190 197 158 209 198 157 154 171 177 191 187 211 155 179 191 191 207 196 211 220 323 286 282 290 148 56 68 72 64 88 86 79
213 206 193 163 186 176 227 184 144 83 280 250 220 247 132 136 244 155 192 147 202 201 183 243 236 189 174 220 155 207 211 219 220 134 228 89 269 168 119 74 76 77 72 85 89
218 205 179 176 156 178 197 132 119 78 270 133 158 124 137 170 125 286 7 73 175 179 136 237 192 174 187 220 161 226 150 169 168 149 48 286 94 256 130 158 158 131 112 84 67
221 203 180 192 263 156 141 114 82 163 233 222 136 161 131 168 150 118 117 51 142 146 219 224 285 206 204 98 161 140 96 47 56 88 257 224 171 230 192 186 155 160 147 129 124
220 212 177 152 207 139 151 102 190 202 55 200 186 166 165 161 170 162 162 173 165 138 202 225 226 242 168 105 45 99 94 317 349 346 229 129 129 268 327 234 161 153 153 153 143
218 210 203 196 144 141 156 183 195 185 203 144 133 113 176 159 208 175 140 195 235 194 124 166 245 174 191 191 180 185 165 165 209 200 241 99 233 240 30 105 125 142 151 152 154
215 222 220 191 158 168 182 210 211 185 167 145 80 122 223 227 165 146 193 209 204 187 172 161 268 162 156 141 143 192 187 175 102 26 52 224 338 160 119 122 135 150 160 170 170
151 203 213 160 171 182 210 217 207 205 138 173 167 168 179 194 165 174 177 205 213 191 220 198 147 133 140 96 21 163 166 89 9 165 238 274 267 207 194 180 172 178 185 187 176
180 213 150 163 170 200 219 206 192 221 169 196 189 176 178 180 183 189 199 236 200 188 153 149 132 238 110 197 182 134 201 97 154 152 176 248 257 239 192 181 181 186 192 187 179
103 225 103 198 199 182 188 185 203 167 153 149 67 22 171 171 179 193 207 237 3 172 166 190 139 172 202 123 306 234 204 168 189 219 226 158 256 327 181 175 172 189 193 175 178
166 158 303 262 202 186 139 186 209 159 191 171 186 199 131 201 213 210 208 68 9 217 164 182 53 48 342 341 2 223 202 153 108 62 206 185 256 25 103 140 173 174 185 176 177
321 141 332 335 338 111 171 182 194 172 210 153 182 132 139 163 290 159 179 40 357 35 30 40 110 182 217 192 131 183 201 192 154 174 171 224 206 194 169 166 185 180 166 171 171
97 281 57 202 231 202 150 191 209 203 226 212 170 203 200 159 157 201 184 39 25 18 46 105 237 171 10 29 53 267 230 186 191 208 206 242 223 190 192 194 201 189 168 159 166
149 197 114 289 292 202 174 193 185 173 179 181 213 200 197 202 187 178 159 169 207 127 175 198 187 124 167 16 24 285 237 216 227 211 267 245 268 166 194 108 157 182 168 169 180
77 38 107 173 173 178 208 176 167 173 197 162 211 154 190 221 120 104 138 150 124 156 168 159 134 130 227 29 43 286 217 208 215 208 205 224 239 164 174 195 182 178 177 173 180